Temp
9 8 8 8 7 6 5 5 5 5 4 4 4 4 4 4 4 4 5 5 5 5 5 5 5 5 5 6 6 6 6 7 7 7 6 6 6 6 6 6 6 6
9 8 8 8 7 6 6 5 5 5 5 4 4 4 4 4 4 4 5 5 5 5 5 5 5 5 5 6 6 6 6 7 7 7 7 7 7 6 6 6 6 6
9 9 8 7 7 7 6 5 5 5 5 4 4 4 4 3 3 4 4 4 5 5 4 4 5 5 5 6 6 6 6 7 7 7 7 7 7 6 6 6 6 6
9 8 7 7 7 7 6 5 5 5 5 5 5 4 4 3 3 3 4 4 4 4 4 4 4 5 5 6 6 6 6 6 7 7 7 7 7 6 6 6 6 6
8 8 7 6 6 6 6 5 5 5 5 5 5 4 4 3 3 3 3 3 4 4 4 4 4 4 5 6 6 6 6 6 6 7 6 6 6 6 6 6 6 6
8 7 6 6 6 5 5 5 5 5 4 4 4 4 4 3 3 3 4 3 3 4 3 3 4 5 5 6 6 6 6 6 6 6 6 6 6 6 6 6 6 6
8 7 7 6 5 5 5 4 4 4 4 4 4 3 3 4 3 4 4 3 3 4 4 4 5 5 5 6 6 6 6 6 6 6 6 6 6 6 6 6 6 6
8 7 7 6 5 5 5 4 4 4 4 4 3 3 3 4 3 3 3 3 3 4 4 4 5 5 5 6 6 6 6 6 6 6 6 6 6 6 6 6 6 6
8 7 7 6 6 5 5 5 4 4 4 4 3 3 3 4 3 3 2 2 3 4 4 4 5 5 5 5 5 5 6 6 6 6 6 6 6 6 6 6 6 6
8 7 7 6 6 6 5 5 5 4 4 3 3 3 3 3 3 2 2 3 3 3 4 4 5 5 5 5 5 5 6 6 6 6 6 6 6 6 6 6 6 5
8 7 7 7 6 6 5 5 5 4 3 3 3 3 3 3 2 2 2 2 3 3 4 4 4 5 5 5 5 5 6 6 6 6 6 6 6 6 6 6 5 5
7 7 7 6 6 6 5 5 4 4 3 3 3 3 3 3 3 2 2 2 3 3 4 4 4 5 5 5 5 5 6 6 6 6 6 6 6 6 6 5 5 5
7 7 7 6 6 6 5 5 4 4 3 3 3 3 3 3 3 2 2 2 2 3 3 4 4 5 5 5 5 5 6 6 6 6 6 6 6 6 6 5 5 5
8 7 7 7 6 6 5 4 4 3 3 3 2 2 3 2 2 2 2 2 2 3 3 3 4 5 5 5 5 5 5 6 6 6 6 6 6 6 5 5 5 5
8 8 7 7 6 6 5 4 4 3 3 3 2 2 2 2 2 2 2 2 2 3 3 3 4 5 4 4 5 5 5 6 6 6 6 5 5 6 5 5 5 5
8 8 7 7 6 5 4 4 4 3 3 3 3 2 2 2 2 3 3 2 2 3 3 3 4 4 4 4 5 5 5 6 6 6 5 5 5 5 5 5 5 5
8 7 7 7 6 5 4 4 3 3 4 4 3 3 3 3 3 3 3 2 3 3 3 3 4 4 4 4 5 5 5 5 6 5 5 5 5 5 5 5 4 5
8 7 7 6 6 6 5 4 4 4 4 3 3 3 3 3 3 3 3 3 3 3 3 3 4 4 4 4 5 5 5 5 5 5 5 5 5 5 5 4 4 4
8 7 7 6 6 6 5 5 4 4 4 3 3 3 3 3 3 3 3 3 3 3 3 3 4 4 4 4 4 5 5 5 5 5 5 5 5 5 4 4 4 4
8 7 7 6 6 5 5 5 4 4 3 3 3 3 3 3 3 3 3 3 3 3 3 3 3 4 4 4 4 5 5 5 5 5 5 5 5 4 4 4 4 4
7 7 7 6 6 5 5 5 4 4 4 3 3 3 3 4 4 3 3 3 3 3 4 3 3 4 4 4 4 4 4 5 5 5 5 5 4 4 4 4 4 4
7 7 7 6 6 5 5 5 4 4 4 4 3 3 3 4 4 3 3 3 3 4 4 3 3 3 4 4 4 4 4 4 4 5 5 4 4 4 4 4 4 4
7 7 7 6 6 5 5 5 4 4 4 4 4 4 4 4 4 4 3 3 3 3 3 3 3 3 4 4 4 4 4 4 4 4 4 4 4 4 4 4 4 4
7 7 7 6 6 5 5 5 5 4 4 4 4 4 4 4 4 4 3 3 3 3 3 3 3 4 4 4 4 4 4 4 4 4 4 4 4 4 4 4 4 4
7 7 7 6 6 5 5 5 5 5 5 5 5 5 5 4 4 4 4 3 3 3 3 3 4 4 4 4 4 4 4 4 4 4 4 4 4 4 4 4 3 3
7 7 7 6 6 6 5 5 5 5 5 5 5 5 5 4 4 4 4 3 3 3 4 4 4 4 4 3 4 4 4 4 4 4 4 4 3 4 4 3 3 3
Height
3115 3115 3115 3115 3115 3115 3116 3117 3120 3120 3120 3124 3128 3130 3132 3133 3134 3136 3138 3139 3140 3141 3142 3144 3146 3147 3147 3148 3148 3149 3150 3150 3150 3151 3150 3150 3150 3150 3150 3150 3150 3149
3114 3114 3113 3113 3113 3113 3113 3115 3116 3117 3120 3124 3127 3130 3131 3132 3134 3136 3136 3137 3138 3139 3141 3142 3144 3145 3145 3146 3147 3148 3148 3149 3149 3149 3149 3149 3149 3149 3149 3149 3149 3148
3112 3111 3111 3111 3110 3110 3112 3114 3114 3114 3117 3121 3124 3127 3130 3131 3133 3134 3135 3136 3137 3138 3139 3140 3142 3143 3144 3145 3145 3146 3146 3147 3148 3148 3148 3148 3149 3149 3148 3148 3148 3148
3109 3109 3109 3108 3108 3109 3111 3113 3112 3113 3114 3117 3119 3123 3126 3129 3131 3132 3133 3134 3135 3136 3137 3139 3140 3141 3143 3143 3144 3144 3145 3145 3146 3147 3147 3147 3148 3148 3147 3147 3147 3146
3107 3106 3106 3106 3106 3107 3110 3111 3112 3112 3113 3114 3116 3119 3123 3125 3127 3129 3131 3131 3132 3134 3135 3137 3138 3140 3141 3142 3142 3143 3144 3144 3145 3146 3146 3146 3147 3146 3146 3146 3146 3145
3104 3104 3104 3104 3104 3106 3108 3110 3111 3110 3111 3112 3114 3116 3119 3122 3124 3126 3127 3128 3130 3132 3133 3135 3137 3138 3139 3140 3141 3142 3142 3143 3144 3145 3145 3145 3145 3145 3145 3145 3144 3144
3102 3102 3102 3102 3102 3104 3106 3108 3109 3108 3108 3110 3112 3114 3117 3119 3121 3122 3123 3124 3127 3130 3132 3133 3135 3136 3137 3139 3140 3141 3141 3142 3143 3143 3144 3144 3144 3144 3144 3143 3143 3143
3100 3100 3100 3100 3100 3102 3104 3106 3107 3106 3106 3108 3111 3113 3114 3115 3117 3119 3120 3122 3125 3127 3129 3131 3133 3134 3136 3138 3139 3140 3140 3141 3142 3142 3142 3143 3143 3142 3142 3142 3142 3141
3099 3098 3099 3098 3098 3100 3103 3104 3105 3105 3105 3107 3109 3110 3111 3111 3113 3115 3117 3120 3122 3124 3126 3128 3131 3133 3135 3137 3138 3138 3139 3140 3140 3141 3141 3141 3141 3141 3141 3140 3140 3140
3097 3097 3097 3097 3097 3099 3101 3103 3104 3104 3105 3106 3107 3107 3108 3109 3110 3113 3115 3118 3121 3122 3124 3126 3129 3132 3133 3135 3136 3137 3138 3138 3139 3139 3139 3139 3139 3139 3139 3139 3138 3138
3095 3095 3095 3096 3096 3097 3099 3101 3102 3101 3103 3105 3106 3107 3107 3107 3109 3111 3114 3116 3119 3120 3122 3124 3128 3131 3132 3133 3135 3136 3136 3137 3137 3137 3137 3138 3138 3138 3137 3137 3137 3137
3094 3094 3094 3094 3095 3095 3097 3099 3099 3099 3101 3103 3104 3106 3106 3106 3107 3109 3112 3115 3117 3118 3120 3123 3127 3129 3130 3132 3133 3134 3134 3135 3135 3135 3135 3136 3136 3136 3136 3136 3135 3135
3092 3092 3092 3093 3094 3094 3095 3096 3096 3098 3100 3102 3103 3105 3105 3105 3105 3108 3111 3113 3115 3117 3119 3122 3125 3128 3128 3130 3131 3132 3132 3133 3133 3133 3134 3134 3134 3134 3134 3134 3134 3133
3091 3091 3091 3091 3092 3093 3093 3094 3095 3096 3098 3100 3102 3103 3104 3105 3105 3107 3109 3111 3113 3115 3117 3121 3124 3126 3127 3128 3129 3130 3130 3131 3131 3131 3132 3132 3132 3132 3132 3133 3132 3132
3089 3089 3089 3090 3090 3091 3091 3092 3094 3095 3096 3098 3100 3102 3103 3104 3104 3106 3108 3109 3111 3113 3116 3120 3122 3124 3125 3126 3127 3128 3129 3129 3129 3130 3130 3130 3130 3130 3131 3131 3130 3130
3087 3087 3087 3088 3088 3089 3090 3091 3092 3094 3095 3097 3098 3099 3100 3101 3103 3105 3106 3108 3110 3112 3115 3118 3121 3122 3123 3125 3125 3126 3127 3127 3128 3128 3128 3128 3128 3128 3129 3129 3129 3129
3085 3085 3085 3086 3086 3087 3088 3089 3091 3092 3094 3095 3096 3097 3098 3100 3102 3104 3105 3107 3109 3111 3114 3117 3119 3120 3122 3123 3124 3124 3125 3126 3126 3126 3126 3127 3127 3127 3127 3127 3127 3127
3084 3084 3084 3085 3085 3086 3087 3088 3089 3091 3093 3095 3096 3098 3099 3100 3102 3103 3105 3107 3108 3110 3113 3115 3117 3119 3120 3121 3122 3123 3124 3124 3124 3124 3124 3125 3125 3125 3125 3125 3125 3125
3083 3083 3084 3084 3085 3086 3086 3087 3089 3091 3093 3095 3097 3098 3099 3100 3101 3103 3104 3106 3107 3109 3112 3114 3116 3117 3119 3120 3120 3121 3122 3122 3122 3122 3123 3123 3123 3123 3123 3123 3124 3124
3081 3082 3083 3084 3084 3086 3087 3088 3089 3091 3093 3095 3096 3097 3098 3099 3101 3102 3103 3105 3106 3108 3111 3113 3114 3116 3117 3118 3119 3120 3120 3120 3120 3120 3120 3121 3121 3121 3121 3122 3122 3122
3080 3081 3082 3083 3084 3085 3087 3088 3089 3091 3093 3094 3096 3097 3097 3099 3100 3101 3103 3104 3106 3108 3110 3112 3113 3115 3116 3117 3117 3118 3118 3117 3118 3118 3118 3119 3119 3119 3120 3120 3120 3120
3079 3080 3080 3082 3083 3085 3086 3088 3089 3091 3093 3094 3096 3097 3097 3099 3100 3102 3103 3104 3105 3107 3109 3110 3112 3113 3114 3115 3115 3115 3115 3115 3116 3116 3116 3117 3117 3117 3118 3118 3118 3118
3077 3078 3079 3081 3082 3084 3086 3087 3089 3091 3093 3095 3096 3097 3098 3099 3100 3101 3103 3103 3104 3105 3107 3109 3110 3111 3112 3112 3113 3113 3113 3113 3114 3114 3114 3115 3115 3115 3116 3116 3117 3117
3076 3077 3078 3080 3081 3083 3084 3086 3088 3090 3092 3094 3095 3096 3097 3098 3099 3100 3101 3102 3102 3104 3105 3107 3108 3109 3109 3110 3110 3110 3111 3111 3112 3112 3112 3113 3113 3114 3114 3115 3115 3115
3074 3076 3077 3079 3080 3081 3083 3084 3086 3087 3089 3091 3093 3093 3094 3096 3097 3098 3099 3100 3100 3102 3104 3106 3106 3107 3107 3108 3108 3108 3108 3109 3109 3110 3110 3111 3111 3112 3112 3113 3113 3113
3073 3075 3076 3078 3079 3080 3081 3082 3083 3085 3087 3089 3090 3091 3092 3093 3094 3095 3097 3097 3098 3100 3102 3103 3104 3105 3105 3105 3106 3106 3107 3107 3108 3108 3108 3109 3109 3110 3110 3111 3111 3111
Wind_Speed
23 23 24 23 24 24 23 26 29 31 30 25 21 20 20 22 23 22 21 22 22 20 17 17 18 16 13 14 13 12 11 10 9 8 8 9 9 9 8 8 9 11
21 22 24 23 24 24 23 25 30 31 27 24 22 20 20 23 23 21 21 22 22 20 19 19 20 18 15 15 14 13 12 10 9 9 9 10 10 11 10 9 10 11
19 20 21 22 23 24 22 24 29 30 27 25 24 21 22 24 22 20 21 21 21 21 21 21 20 19 17 16 15 13 12 10 10 10 10 11 12 12 11 10 11 12
18 17 17 20 23 23 22 24 28 31 30 28 27 24 23 22 20 20 21 20 21 21 21 21 19 19 17 16 14 13 12 11 11 11 11 12 13 13 12 11 11 12
18 17 17 21 23 22 22 24 27 30 31 29 28 26 23 21 20 21 21 21 20 20 21 20 19 18 17 15 13 13 12 12 12 11 12 13 13 14 13 12 12 13
19 19 20 22 24 22 22 23 25 29 30 29 28 25 22 21 22 23 23 22 20 20 22 23 21 19 16 14 13 13 13 12 12 12 12 13 14 14 14 13 13 13
19 20 21 23 24 23 22 22 24 28 28 26 26 23 20 20 22 25 25 24 22 22 25 26 24 19 16 15 15 14 14 13 13 13 13 13 14 14 14 14 13 13
19 19 20 22 24 23 22 22 24 27 26 25 24 22 21 23 24 26 26 25 24 25 27 28 25 19 17 17 16 15 14 13 13 13 12 12 13 14 14 14 13 13
19 19 19 21 23 22 20 22 24 25 25 24 23 22 23 26 27 28 28 24 24 27 28 29 27 22 18 19 17 15 14 13 13 12 11 11 12 14 14 13 13 13
19 18 18 19 20 19 18 19 21 24 23 22 20 19 22 25 26 28 26 23 24 27 27 27 27 24 20 19 16 15 14 13 12 10 9 10 12 13 13 13 13 13
17 17 17 18 19 19 17 16 18 21 21 20 19 18 21 24 25 26 24 23 24 25 25 25 27 25 21 18 17 15 14 13 10 8 8 10 12 14 14 13 13 13
17 17 18 19 20 20 19 18 18 19 20 20 19 18 22 25 25 24 24 23 24 25 24 24 27 26 20 17 17 16 14 13 10 7 8 11 13 14 14 13 13 13
16 17 18 19 19 20 20 19 18 18 20 19 18 18 20 20 20 21 22 22 24 25 24 24 27 25 19 17 17 16 14 12 9 7 9 12 14 14 14 13 13 13
17 17 18 18 18 19 19 18 17 17 18 17 16 16 16 15 17 20 22 22 25 26 24 24 27 24 19 17 16 15 13 11 10 10 11 13 14 14 13 13 13 13
16 16 17 16 16 17 16 16 17 17 17 17 16 16 16 17 19 20 21 22 24 24 23 25 26 22 17 16 15 14 13 12 12 12 12 13 15 15 14 13 14 14
16 16 15 14 14 14 14 17 18 19 19 18 17 18 17 18 19 19 21 23 24 23 21 24 27 22 16 15 15 14 14 14 14 13 14 15 16 16 14 13 14 13
15 14 14 12 12 13 14 19 21 20 19 17 17 16 15 16 17 19 21 23 24 22 21 23 26 21 16 15 16 15 15 15 15 15 16 17 18 17 15 14 14 13
12 13 12 11 11 12 13 17 20 20 18 17 15 14 14 16 17 18 20 21 22 21 21 23 23 18 16 17 17 16 16 17 17 17 18 19 18 17 15 14 14 13
11 12 11 10 11 12 12 15 18 19 18 16 15 15 16 18 18 18 20 20 21 22 22 22 20 17 17 18 18 18 19 19 18 18 19 18 17 16 15 14 14 13
10 10 9 9 12 13 13 15 17 17 17 16 16 17 18 19 18 19 20 21 22 23 23 22 19 18 18 19 20 20 20 19 19 18 18 17 16 16 15 14 14 13
10 9 9 9 12 14 14 15 16 16 17 17 17 18 19 18 18 18 20 22 23 23 22 21 20 19 20 21 21 21 20 19 19 18 17 17 16 15 14 14 14 13
9 9 8 9 12 15 15 15 16 17 18 17 17 19 19 19 18 19 20 22 23 22 21 21 21 21 22 22 22 21 20 19 18 18 17 17 15 15 15 14 14 12
10 10 9 8 12 15 15 15 17 17 17 17 18 19 20 19 19 20 20 21 22 22 21 22 23 24 24 23 23 21 20 19 19 18 17 17 16 16 15 14 13 12
11 11 10 10 12 15 16 17 17 17 17 17 18 20 20 20 20 21 21 22 23 22 22 23 24 26 25 24 23 21 20 20 19 18 18 17 16 16 15 14 13 12
12 12 12 13 14 16 18 18 18 19 19 18 19 21 22 21 21 21 22 23 24 24 23 24 25 25 25 24 23 22 21 20 19 19 18 17 17 17 15 14 13 12
14 14 14 15 16 18 20 20 21 22 21 19 21 23 24 23 23 23 23 24 26 25 25 25 26 25 24 25 24 23 22 20 20 20 18 17 18 17 15 14 13 12
Wind_Direction
279 280 280 277 270 263 251 242 239 239 243 243 240 238 232 230 229 223 222 225 227 228 225 224 223 219 230 238 232 228 227 230 238 250 266 277 285 293 300 311 321 328
290 293 289 282 272 266 257 246 241 241 245 243 238 237 231 230 229 222 223 227 229 229 226 228 222 212 222 236 232 227 227 230 241 250 264 274 281 289 296 306 315 323
292 297 294 286 278 273 264 250 241 242 249 249 246 244 233 228 226 222 224 227 230 230 226 225 213 200 214 232 228 225 226 231 241 250 262 273 279 286 294 303 311 317
280 286 284 277 273 271 262 249 242 242 246 249 252 252 239 225 218 220 223 222 227 229 223 216 202 197 216 228 225 224 227 232 241 250 262 272 278 284 293 302 307 312
264 265 265 263 264 264 258 248 244 244 247 250 251 248 239 226 217 222 222 216 220 221 212 206 201 206 221 225 224 227 229 235 242 251 262 271 278 284 292 300 303 308
254 253 254 256 258 258 254 247 245 245 247 249 248 242 236 227 224 233 231 217 215 210 201 200 202 212 223 225 229 231 232 240 245 253 263 270 277 284 292 298 301 305
251 250 252 254 255 254 249 245 246 248 247 245 241 236 234 229 230 239 233 216 213 211 205 203 205 212 221 225 233 236 235 244 248 254 263 269 277 285 291 298 301 304
248 248 251 253 254 252 249 247 249 251 248 243 240 237 238 238 236 232 221 211 212 211 208 208 207 208 216 223 234 239 237 245 250 253 262 270 278 285 291 299 302 302
247 247 249 252 256 256 252 252 254 253 247 243 246 245 242 241 234 224 218 214 212 209 209 211 205 203 215 226 234 238 237 242 246 250 261 271 281 289 295 302 302 301
246 249 250 252 258 258 252 253 259 256 247 243 248 244 238 236 230 225 223 214 209 211 215 214 205 201 215 227 231 234 233 235 240 249 266 280 287 292 298 302 302 300
247 251 253 253 255 256 254 257 261 256 243 237 239 232 228 229 226 228 228 213 206 214 219 214 204 203 215 225 227 229 229 232 240 253 273 284 288 292 298 302 301 299
247 251 253 254 254 254 256 260 259 249 235 228 229 228 230 228 224 228 227 213 209 216 218 210 202 205 216 224 225 227 229 234 243 255 271 280 284 289 296 302 301 298
248 252 254 255 255 255 258 258 251 243 237 232 227 228 233 229 221 223 221 215 215 220 219 208 201 205 217 224 225 228 230 236 244 256 272 279 283 290 298 302 300 294
252 255 257 260 262 261 258 250 240 237 238 235 226 224 228 222 218 220 218 217 219 219 216 205 199 204 216 222 226 229 231 237 242 254 272 280 283 292 300 302 296 290
254 258 262 267 270 266 254 242 236 231 229 230 227 225 227 225 224 222 217 217 218 216 211 202 199 206 217 223 228 231 234 238 242 254 273 282 285 293 300 299 292 287
254 259 265 270 271 263 242 229 229 228 228 229 224 219 221 223 224 220 216 217 217 216 211 204 202 209 221 229 233 234 236 240 246 259 274 281 285 291 297 295 288 284
253 259 266 269 263 253 234 223 225 227 227 222 216 214 216 218 220 220 219 217 215 216 215 209 206 210 223 232 234 237 240 244 250 261 272 278 283 290 294 290 283 281
253 259 267 265 249 241 230 222 222 220 215 211 212 216 218 219 220 220 219 217 214 214 215 210 206 212 226 231 234 240 245 250 256 264 270 275 281 288 290 284 278 278
253 258 264 257 238 229 219 212 211 209 208 211 216 218 221 223 223 221 219 216 214 216 215 210 210 221 230 233 238 244 249 255 260 265 268 274 282 286 284 277 275 275
249 254 260 246 227 220 212 204 204 209 214 218 221 223 226 226 223 221 219 214 213 216 215 212 218 229 234 237 243 249 253 258 261 264 269 276 281 281 277 273 273 274
242 251 256 239 221 217 215 209 210 218 224 227 228 230 232 230 225 223 220 216 216 218 216 217 224 233 238 242 247 252 255 258 260 264 272 277 278 275 272 270 271 273
235 244 249 237 221 218 219 219 220 225 227 229 232 236 238 235 228 223 220 220 221 221 221 223 229 236 242 246 250 253 255 257 261 267 273 276 272 268 267 268 269 271
229 235 240 235 221 218 221 223 224 227 229 233 238 244 246 243 236 229 226 225 226 225 226 229 233 238 243 247 250 252 253 257 262 268 272 272 268 264 265 266 267 268
226 228 233 231 221 217 221 223 225 228 233 239 246 251 252 249 245 240 235 232 230 230 230 232 235 238 242 245 248 250 252 257 263 267 269 268 264 262 263 263 262 265
228 229 230 230 224 221 222 223 226 231 236 242 250 253 253 250 246 243 242 240 237 235 234 235 238 241 244 246 248 249 252 257 263 266 267 265 261 260 261 260 260 264
234 234 231 231 231 229 229 230 234 239 243 246 248 249 248 247 244 242 241 241 239 237 236 237 241 244 247 248 249 250 253 257 262 265 265 262 259 259 260 260 261 264